Flag for Germany Weather past 2 weeks in Bitterfeld-Wolfen, Saxony-Anhalt, Germany

Now
68 °F

Clear.


Feels Like: 68 °F
Forecast: 61 / 89 °F
Wind: 6 mph from Northeast

Location: Leipzig-Schkeuditz

Current Time: Aug 29, 2015 at 11:03:05 PM

Latest Report: Aug 29, 2015 at 10:20 PM


Visibility: 10 mi

Pressure: 30.18 "Hg

Humidity: 78%

Dew point: 61 °F

Location of Bitterfeld-WolfenLocation

Historic Weather in Bitterfeld-Wolfen — Graph

°F

Bitterfeld-Wolfen temperature yesterday

Maximum temperature yesterday: 66 °F (at 2:50 PM)
Minimum temperature yesterday: 57 °F (at 6:50 AM)
Average temperature yesterday: 63 °F

Past Weeks' High & Low Weather Summary

 TemperatureHumidityPressure
High82 °F (Aug 15, 1:20 PM)100% (Aug 16, 1:20 AM)30.30 "Hg (Aug 16, 1:20 AM)
Low54 °F (Aug 21, 4:20 AM)32% (Aug 22, 4:20 PM)29.68 "Hg (Aug 14, 9:20 PM)
Average66 °F79%29.99 "Hg
* Reported Aug 14 9:20 PM — Aug 29 9:50 PM, Bitterfeld-Wolfen, Weather by CustomWeather, © 2015

Note: Actual official high and low records may vary slightly from our data, if they occured in-between our weather recording intervals... More about our weather records

Advertising

Bitterfeld-Wolfen weather history for previous 24 hours

 ConditionsComfort  
Time TempWeatherWind HumidityBarometerVisibility
9:50 PM
Sat, Aug 29
68 °FClear.6 mph78%30.18 "Hg10 mi
9:20 PM70 °FClear.6 mph73%30.18 "Hg10 mi
8:50 PM70 °FSunny.7 mph73%30.18 "Hg10 mi
8:20 PM70 °FSunny.7 mph78%30.18 "Hg10 mi
7:50 PM70 °FSunny.8 mph78%30.18 "Hg10 mi
7:20 PM73 °FSunny.8 mph69%30.18 "Hg10 mi
6:50 PM73 °FSunny.7 mph65%30.18 "Hg10 mi
6:20 PM73 °FSunny.6 mph65%30.18 "Hg10 mi
5:50 PM75 °FSunny.6 mph61%30.18 "Hg10 mi
5:20 PM75 °FPassing clouds.6 mph61%30.21 "HgN/A
4:50 PM73 °FSunny.6 mph65%30.21 "Hg10 mi
4:20 PM73 °FScattered clouds.6 mph65%30.21 "HgN/A
3:50 PM73 °FScattered clouds.7 mph65%30.21 "HgN/A
3:20 PM73 °FScattered clouds.7 mph65%30.24 "HgN/A
2:50 PM72 °FScattered clouds.7 mph69%30.24 "HgN/A
2:20 PM72 °FScattered clouds.8 mph69%30.24 "HgN/A
1:50 PM70 °FScattered clouds.8 mph73%30.24 "HgN/A
1:20 PM70 °FBroken clouds.8 mph69%30.27 "HgN/A
12:50 PM68 °FBroken clouds.9 mph73%30.27 "HgN/A
12:20 PM70 °FScattered clouds.6 mph64%30.27 "HgN/A
11:50 AM68 °FScattered clouds.8 mph69%30.27 "HgN/A
11:20 AM68 °FScattered clouds.8 mph69%30.27 "HgN/A
10:50 AM68 °FScattered clouds.7 mph78%30.27 "HgN/A
9:50 AM64 °FPartly sunny.5 mph83%30.27 "HgN/A
9:20 AM63 °FPartly sunny.2 mph94%30.27 "HgN/A
8:50 AM61 °FSunny.3 mph94%30.27 "Hg10 mi
7:50 AM57 °FFog.2 mph100%30.24 "Hg6 mi
7:20 AM55 °FSleet. Cloudy.3 mph100%30.24 "Hg4 mi
6:50 AM54 °FFog.5 mph100%30.24 "Hg5 mi
6:20 AM55 °FFog.1 mph100%30.24 "Hg4 mi
5:50 AM54 °FFog.5 mph100%30.24 "Hg2 mi
5:20 AM55 °FFog.2 mph100%30.21 "HgN/A
4:50 AM55 °FFog.2 mph94%30.21 "Hg3 mi
4:20 AM57 °FFog.5 mph100%30.21 "Hg3 mi
3:50 AM57 °FFog.6 mph100%30.21 "Hg4 mi
3:20 AM57 °FFog.3 mph100%30.21 "Hg4 mi
2:50 AM57 °FClear.6 mph100%30.21 "Hg10 mi
2:20 AM59 °FClear.5 mph100%30.21 "Hg10 mi
1:50 AM59 °FClear.6 mph100%30.18 "Hg10 mi
1:20 AM59 °FClear.5 mph100%30.18 "Hg10 mi
12:50 AM61 °FClear.5 mph100%30.18 "Hg10 mi
12:20 AM61 °FClear.6 mph100%30.18 "Hg10 mi
11:50 PM
Fri, Aug 28
61 °FClear.6 mph94%30.18 "Hg10 mi
11:20 PM61 °FClear.5 mph94%30.18 "Hg10 mi
Weather by CustomWeather, © 2015

See weather overviewHow to use our weather pages